www.pogodaiklimat.ru

Погода и климат >> Архив погоды >> Португалия >> Вила-Реал


ПОГОДА в Вила-Реале

  • Прогноз погоды в Вила-Реале
  • Монитор погоды в Вила-Реале

АРХИВ ПОГОДЫ в Вила-Реале

Время (UTC), дата Ветер
(напр.,м/с)
 
Видим.   Явления Облачность Т
(С)
Тd
(С)
f
(%)
Тe
(С)
Тes
(С)
Комфортность P
(гПа)
Po
(гПа)
Тmin
(С)
Tmax
(С)
R
(мм)
R24
(мм)
S
(см)
07 10.07 С 2 н/о н/о +20.1 +10.3 53 +22 +22 комфорт 1017.7 953.6
08 10.07 С 1 20 км ясно +22.2 +9.1 43 +24 +30 комфорт 1017.5 953.9
09 10.07 С 1 20 км ясно +23.8 +7.9 36 +24 +36 комфорт 1017.3 954.0
10 10.07 20 км 1/0
[Ci fib]
+24.9 +9.3 37 1016.7 953.7
11 10.07 20 км 1/0
[Ci fib]
+26.1 +10.6 38 1016.0 953.2
12 10.07 С 1
{7}
20 км 1/1 450 м
[Cu med, cong Ci fib]
+27.7 +12.7 40 +29 +50 жарко 1015.0 952.6
13 10.07 С 1 20 км 1/1 450 м
[Cu med, cong Ci fib]
+29.2 +12.9 37 +31 +51 опасность
солнечного
удара
1013.9 951.9
14 10.07 н/о н/о +30.2 +12.5 34 1013.2 951.4
15 10.07 С 2
{5}
н/о н/о +30.8 +13.8 35 +32 +32 жарко 1012.7 951.1
16 10.07
{5}
н/о н/о +31.4 +13.4 33 1012.3 950.8
17 10.07 С 3-5
{6}
н/о н/о +31.0 +12.2 32 +32 +32 жарко 1012.0 950.4
18 10.07 С 2
{5}
н/о н/о +30.7 +12.1 32 +31 +31 жарко 1011.9 950.3 +31.7
19 10.07 С 2
{5}
н/о н/о +29.7 +13.6 37 +31 +31 жарко 1012.4 950.6
20 10.07 СЗ 2
{5}
н/о н/о +26.0 +16.8 57 +30 +30 душно 1013.5 950.9
21 10.07 штиль 0 н/о н/о +24.2 +16.5 62 +28 +28 душно 1014.3 951.3
22 10.07 штиль 0 н/о н/о +23.6 +15.9 62 +27 +27 жарко 1014.7 951.6
23 10.07 штиль 0 н/о н/о +22.5 +15.4 64 +26 +26 жарко 1015.0 951.6
00 11.07 штиль 0 н/о н/о +21.2 +15.3 69 +24 +24 комфорт 1015.3 951.6
01 11.07 штиль 0 н/о н/о +20.6 +15.1 71 +23 +23 комфорт 1015.3 951.5
02 11.07 штиль 0 н/о н/о +20.2 +14.8 71 +22 +22 комфорт 1015.0 951.1
03 11.07 СВ 1 н/о н/о +19.9 +14.5 71 +23 +23 комфорт 1015.0 951.1
04 11.07 штиль 0 н/о н/о +19.8 +13.8 68 +21 +21 комфорт 1014.8 950.9
05 11.07 штиль 0 н/о н/о +18.8 +13.4 71 +20 +20 1015.4 951.2
06 11.07 штиль 0 н/о н/о +18.9 +13.9 73 +20 +20 1015.6 951.4 +18.7
07 11.07 штиль 0 н/о н/о +23.7 +15.5 60 +27 +27 жарко 1014.8 951.6
08 11.07 20 км ясно +25.5 +15.7 55 1014.7 951.9
09 11.07 штиль 0 20 км ясно +26.8 +16.4 53 +30 +44 душно 1014.6 952.1
10 11.07 С 1 20 км ясно +28.2 +17.4 52 +32 +49 душно 1014.3 952.0
11 11.07 С 1 20 км 1/1 450 м
[Cu hum]
+30.7 +15.8 41 +34 +52 опасность
солнечного
удара
1013.6 951.9
12 11.07 С 1 20 км 1/1 500 м
[Cu med, cong]
+31.3 +13.5 34 +33 +53 опасность
солнечного
удара
1013.3 951.7
13 11.07 20 км 1/1 500 м
[Cu hum]
+32.3 +13.0 31 1012.7 951.3
14 11.07
{5}
н/о н/о +33.2 +14.1 32 1012.0 950.9
15 11.07 С 2
{5}
н/о н/о +33.4 +14.7 32 +35 +35 душно 1011.6 950.6
16 11.07 -5
{6}
н/о н/о +33.7 +14.3 31 1011.3 950.3
17 11.07 СЗ 2
{6}
н/о н/о +33.7 +13.8 30 +35 +35 очень
жарко
1011.0 950.0
18 11.07 СЗ 3-5
{6}
н/о н/о +32.6 +15.2 35 +35 +35 душно 1011.4 950.2 +34.5
19 11.07
{6}
н/о н/о +30.5 +16.5 43 1012.0 950.3
20 11.07 З 2 н/о н/о +28.1 +14.7 44 +31 +31 душно 1012.7 950.5
21 11.07 штиль 0 н/о н/о +26.3 +14.5 48 +29 +29 жарко 1013.5 951.0
22 11.07 штиль 0 н/о н/о +25.0 +14.8 53 +28 +28 жарко 1014.2 951.3
23 11.07 штиль 0 н/о н/о +24.4 +14.5 54 +27 +27 жарко 1014.3 951.3
00 12.07 С 2 н/о н/о +24.1 +15.4 58 +27 +27 жарко 1014.3 951.2
01 12.07 С 3
{5}
н/о н/о +24.6 +16.1 59 +28 +28 душно 1014.0 951.1
02 12.07 С 2 н/о н/о +23.6 +15.6 61 +27 +27 жарко 1014.1 951.0
03 12.07 штиль 0 н/о н/о +21.7 +15.2 67 +25 +25 комфорт 1014.7 951.1
04 12.07 С 1 н/о н/о +21.4 +15.1 67 +25 +25 комфорт 1015.0 951.3
05 12.07 штиль 0 н/о н/о +20.5 +14.5 68 +23 +23 комфорт 1015.4 951.5
06 12.07 штиль 0 н/о н/о +20.4 +14.8 70 +23 +23 комфорт 1015.9 951.9 +20.2
07 12.07 С 1 н/о н/о +23.1 +15.4 62 +27 +27 душно 1015.6 952.3
08 12.07 С 1 20 км 3/0
[Ci fib]
+25.9 +15.8 54 +29 +35 душно 1015.2 952.4
09 12.07 штиль 0 20 км 4/0 1500 м
[Ac trans Ci fib]
+28.1 +16.0 48 +31 +43 душно 1014.5 952.2
10 12.07 20 км 9/0
[Ci fib]
+28.7 +17.0 49 1014.2 952.1
11 12.07 20 км 9/0
[Ci fib]
+29.7 +17.3 47 1014.3 952.4
12 12.07 С 1 20 км 9/0
[Ci sp]
+32.3 +17.8 42 +36 +55 опасность
солнечного
удара
1013.5 952.1
13 12.07 С 1 20 км 9/0
[Ac As Ci fib]
+33.1 +17.7 40 +37 +51 опасность
солнечного
удара
1013.1 951.9
14 12.07
{5}
н/о н/о +31.2 +18.3 46 1013.2 951.6
15 12.07 С 1 н/о н/о +29.6 +18.6 52 +35 +35 очень
душно
1013.1 951.2
16 12.07
{5}
н/о н/о +30.8 +18.8 49 1013.4 951.7
17 12.07 С 1 н/о н/о +31.8 +19.5 48 +38 +38 очень
душно
1012.6 951.1
18 12.07 С 1 н/о н/о +30.4 +19.6 52 +36 +36 очень
душно
1012.3 950.7 +33.5
19 12.07 СЗ 1 н/о н/о +29.2 +18.3 52 +34 +34 очень
душно
1012.9 951.0
20 12.07 н/о н/о +28.2 +15.3 45 1013.1 951.0
21 12.07 штиль 0 н/о н/о +26.9 +15.3 49 +30 +30 душно 1013.1 950.7
22 12.07 Ю 2 н/о н/о +24.9 +18.1 66 +29 +29 душно 1013.7 950.9
23 12.07 штиль 0 н/о н/о +21.8 +16.6 72 +26 +26 душно 1014.6 951.1
00 13.07 штиль 0 н/о н/о +20.3 +15.7 75 +23 +23 комфорт 1014.7 950.8
01 13.07 штиль 0 н/о н/о +20.2 +15.0 72 +22 +22 комфорт 1014.4 950.5
02 13.07 штиль 0 н/о н/о +19.5 +15.3 77 +21 +21 комфорт 1013.9 950.0
03 13.07 штиль 0 н/о н/о +19.4 +15.1 76 +21 +21 комфорт 1013.9 949.9
04 13.07 С 2 н/о н/о +19.7 +15.3 76 +22 +22 комфорт 1013.3 949.4
05 13.07 штиль 0 н/о н/о +18.9 +15.6 81 +20 +20 1013.3 949.2
06 13.07 штиль 0 н/о н/о +18.7 +15.9 84 +20 +20 1014.0 949.8 +18.5
07 13.07 С 1 н/о н/о +20.8 +16.3 75 +25 +25 комфорт 1013.6 949.9
08 13.07 н/о н/о +21.6 +16.5 73 1013.4 949.9
09 13.07 С 2 н/о н/о +19.8 +15.9 78 +23 +23 комфорт 1014.0 950.1
10 13.07 н/о н/о +18.8 +17.8 94 1015.2 951.0 2
11 13.07 н/о н/о +23.1 +19.3 79 1013.9 950.7
12 13.07 С 1 н/о н/о +23.7 +18.1 71 +28 +28 душно 1013.6 950.5
13 13.07 З 4-6
{6}
н/о н/о +24.5 +16.5 61 +28 +28 душно 1013.4 950.5
14 13.07
{5}
н/о н/о +25.3 +17.9 64 1012.9 950.1
15 13.07 З 4-7
{7}
н/о н/о +25.0 +17.3 62 +29 +29 душно 1012.9 950.1
16 13.07 З 3-5
{7}
н/о н/о +24.7 +17.4 64 +29 +29 душно 1013.0 950.2
17 13.07 -6
{6}
н/о н/о +22.8 +17.4 72 1013.8 950.6
18 13.07 З 4-7
{9}
н/о н/о +21.3 +17.2 77 +25 +25 комфорт 1015.0 951.3 +26.4 2
19 13.07 С 2
{6}
н/о н/о +20.4 +17.2 82 +24 +24 комфорт 1014.7 950.9
20 13.07 С 1 н/о н/о +18.9 +16.3 85 +21 +21 комфорт 1015.2 951.0
21 13.07 С 1 н/о н/о +17.9 +16.4 91 +19 +19 1015.9 951.5 2
22 13.07 штиль 0 н/о н/о +17.3 +16.0 92 +17 +17 1016.2 951.6
23 13.07 штиль 0 н/о н/о +17.2 +16.2 94 +17 +17 1016.2 951.6
00 14.07 штиль 0 н/о н/о +16.3 +15.5 95 +16 +16 1016.0 951.2
01 14.07 штиль 0 н/о н/о +16.1 +15.5 96 +16 +16 1016.2 951.3
02 14.07 н/о н/о +15.9 +15.3 96 1015.9 951.0
03 14.07 штиль 0 н/о н/о +15.7 +15.1 96 +15 +15 1015.9 951.0
04 14.07 штиль 0 н/о н/о +14.6 +14.1 97 +14 +14 1016.1 950.9
05 14.07 штиль 0 н/о н/о +14.7 +14.1 96 +14 +14 1016.4 951.3
06 14.07 штиль 0 н/о н/о +14.9 +14.5 97 +15 +15 1016.3 951.2 +14.5
07 14.07 штиль 0 н/о н/о +16.8 +15.8 94 +17 +17 1016.1 951.4
08 14.07 н/о н/о +19.8 +15.5 76 1015.7 951.7
09 14.07 штиль 0 н/о н/о +23.4 +16.2 64 +28 +28 душно 1015.0 951.8
10 14.07 н/о н/о +24.7 +16.9 62 1014.6 951.7
11 14.07 н/о н/о +25.6 +16.7 58 1014.3 951.6
12 14.07 С 2 н/о н/о +27.2 +16.0 50 +30 +30 душно 1013.8 951.4
13 14.07 С 2
{5}
н/о н/о +28.9 +15.4 44 +32 +32 душно 1013.1 951.1
14 14.07
{6}
н/о н/о +30.1 +16.7 45 1012.4 950.6
15 14.07 СЗ 3-6
{6}
н/о н/о +30.2 +15.6 41 +33 +33 душно 1012.2 950.5
16 14.07 СЗ 4-7
{8}
н/о н/о +29.5 +16.9 47 +33 +33 душно 1012.4 950.5
17 14.07 З 3-7
{8}
н/о н/о +28.9 +18.0 52 +34 +34 очень
душно
1012.6 950.6
18 14.07 С 3-7
{7}
н/о н/о +27.4 +17.2 54 +31 +31 душно 1012.8 950.5 +31.0
19 14.07 ЮЗ 2
{6}
н/о н/о +25.6 +17.7 62 +30 +30 душно 1013.3 950.6
20 14.07 Ю 2 н/о н/о +23.0 +16.8 68 +28 +28 душно 1013.9 950.6
21 14.07 Ю 2
{5}
н/о н/о +20.8 +16.2 75 +25 +25 комфорт 1014.8 951.1
22 14.07 С 1 н/о н/о +19.6 +15.7 78 +23 +23 комфорт 1015.1 951.1
23 14.07 штиль 0 н/о н/о +18.5 +15.8 84 +19 +19 1015.5 951.2
00 15.07 штиль 0 н/о н/о +18.2 +15.6 85 +18 +18 1015.7 951.3
01 15.07 штиль 0 н/о н/о +17.7 +15.2 85 +18 +18 1015.5 951.1
02 15.07 штиль 0 н/о н/о +16.6 +14.5 87 +16 +16 1015.5 950.9
03 15.07 штиль 0 н/о н/о +16.7 +15.3 91 +17 +17 1015.4 950.7
04 15.07 штиль 0 н/о н/о +15.9 +14.7 93 +16 +16 1015.6 950.8
05 15.07 штиль 0 н/о н/о +15.8 +15.1 96 +16 +16 1016.0 951.1
06 15.07 С 1 н/о н/о +15.6 +14.8 95 +16 +16 1016.0 951.0 +15.1
07 15.07 штиль 0 н/о н/о +18.2 +16.3 89 +19 +19 1015.6 951.3
08 15.07 н/о н/о +21.0 +16.4 75 1015.3 951.6
09 15.07 С 1 20 км 3/1 450 м
[Cu med, cong Ci fib]
+22.1 +16.1 69 +26 +36 душно 1014.9 951.4
10 15.07 н/о н/о +24.0 +16.6 63 1014.5 951.4
11 15.07 С 1 н/о н/о +25.6 +17.1 59 +29 +29 душно 1014.1 951.4
12 15.07 С 2
{5}
н/о н/о +27.5 +15.6 48 +30 +30 жарко 1013.4 951.1
13 15.07
{8}
н/о н/о +29.0 +16.3 46 1012.8 950.8
14 15.07 Ю 3-6
{6}
н/о н/о +28.1 +18.2 55 +33 +33 очень
душно
1012.8 950.6
15 15.07 С 2
{5}
н/о н/о +29.4 +16.8 47 +33 +33 душно 1012.3 950.4
16 15.07
{5}
н/о н/о +28.9 +15.6 44 1012.2 950.2
17 15.07
{5}
н/о н/о +29.3 +14.8 41 1011.9 950.0
18 15.07 ЮЗ 3
{5}
н/о н/о +28.8 +15.2 44 +32 +32 душно 1011.7 949.8 +30.2
19 15.07 Ю 3
{6}
н/о н/о +25.2 +17.1 61 +29 +29 душно 1012.7 950.0
20 15.07 Ю 2
{5}
н/о н/о +22.0 +16.8 72 +26 +26 душно 1013.6 950.2
21 15.07 С 1 н/о н/о +20.4 +16.6 79 +25 +25 комфорт 1014.5 950.7
22 15.07 н/о н/о +19.5 +16.9 85 1015.0 950.9
23 15.07 штиль 0 н/о н/о +18.7 +17.2 91 +20 +20 1015.4 951.1
00 16.07 штиль 0 н/о н/о +18.4 +16.7 90 +19 +19 1015.4 951.1
01 16.07 штиль 0 н/о н/о +18.2 +17.0 93 +19 +19 1015.0 950.7
02 16.07 штиль 0 н/о н/о +17.6 +16.7 94 +18 +18 1014.9 950.5
03 16.07 С 1 н/о н/о +17.5 +15.9 90 +19 +19 1014.8 950.3
04 16.07 С 3
{5}
н/о н/о +17.7 +14.9 84 +18 +18 1014.7 950.3
05 16.07 С 1 н/о н/о +17.3 +14.1 81 +18 +18 1014.9 950.4
06 16.07 С 1 н/о н/о +17.7 +14.0 79 +19 +19 1015.0 950.6 +16.9
07 16.07 С 1 н/о н/о +20.9 +12.5 59 +24 +24 комфорт 1014.7 950.9
08 16.07 н/о н/о +23.4 +11.6 47 1014.0 950.8
09 16.07 С 2
{6}
н/о н/о +25.1 +9.1 36 +26 +26 жарко 1013.4 950.6
10 16.07
{5}
н/о н/о +26.4 +10.8 38 1013.0 950.5
11 16.07
{5}
н/о н/о +27.4 +10.6 35 1012.6 950.3
12 16.07 С 1 н/о н/о +27.1 +10.6 36 +28 +28 жарко 1012.5 950.2
13 16.07 н/о н/о +27.3 +10.9 36 1012.2 950.0
14 16.07 СЗ 3
{5}
н/о н/о +27.4 +11.8 38 +29 +29 жарко 1011.8 949.6
15 16.07 С 1 н/о н/о +27.6 +12.8 40 +29 +29 жарко 1011.6 949.4
16 16.07 н/о н/о +28.4 +16.4 48 1011.0 949.0
17 16.07
{5}
н/о н/о +28.4 +17.6 52 1010.6 948.6
18 16.07 ЮЗ 2
{5}
н/о н/о +27.6 +17.8 55 +32 +32 очень
душно
1010.9 948.8 +29.9
19 16.07 Ю 1
{5}
н/о н/о +25.3 +18.9 68 +30 +30 душно 1011.5 948.8
20 16.07 Ю 3 н/о н/о +23.1 +18.1 73 +29 +29 очень
душно
1012.1 949.0
21 16.07 штиль 0
{5}
н/о н/о +21.5 +17.1 76 +25 +25 комфорт 1013.2 949.6
22 16.07 штиль 0 н/о н/о +20.7 +16.8 78 +24 +24 комфорт 1013.5 949.8
23 16.07 штиль 0 н/о н/о +20.3 +17.0 81 +23 +23 комфорт 1013.8 950.0
00 17.07 ЮЗ 1 н/о н/о +20.6 +17.1 80 +25 +25 комфорт 1013.5 949.7
01 17.07 С 1 н/о н/о +19.6 +16.6 83 +23 +23 комфорт 1013.6 949.7
03 17.07 СЗ 2 н/о н/о +18.6 +15.3 81 +20 +20 1013.3 949.2
05 17.07 С 2 н/о н/о +17.4 +13.8 79 +18 +18 1013.9 949.5
06 17.07 С 4-6
{6}
н/о н/о +17.2 +13.7 80 +17 +17 1014.5 950.0 +17.2

 

Местоположение метеостанции Вила-Реал (Португалия): широта 41.27 долгота -7.72 высота над уровнем моря 562 м.

В архиве по умолчанию представлена погода в Вила-Реале за последнюю неделю. Архивные данные за месяц целиком и за предыдущие месяцы, начиная с января 2011 года, Вы можете получить, выбрав интересующий диапазон дат из раскрывающегося списка и нажав кнопку "Ввод!".


*Определитесь, кто Вы:
робот инопланетянин человек

Внимание! Время в таблицах - всемирное. Для получения местного времени необходимо прибавить поправку, которая равна 0 ч.

Смотрите также архив погоды в соседних городах и на ближайших метеорологических станциях:

Погода в Визеу (Португалия) (63 км)
Погода в Порту (Португалия) (80 км)
Погода в Оваре (Португалия) (86 км)
Погода в Хинсо-де-Лимии (Испания) (90 км)
Погода в Обсерватории Penhas Douradas (Португалия) (96 км)
Погода в Виана-ду-Каштелу (Португалия) (99 км)
Погода в Брагансе (Португалия) (101 км)
Погода в Витигудино (Испания) (111 км)
Погода в Саэлисес-эль-Чико (Испания) (118 км)
Погода в Оренсе (Испания) (119 км)

Пояснения к столбцам:

Ветер - указаны скорость ветра в м/с - средняя за 10 мин, порывы в срок и между сроками (в фигурных скобках) и направление, откуда дует ветер: С - северный, СВ - северо-восточный, В - восточный, ЮВ - юго-восточный, Ю - южный, ЮЗ - юго-западный, З - западный, СЗ - северо-западный.
Видимость - горизонтальная дальность видимости в метрах или километрах. При видимости от 1 до 10 км при отсутствии осадков обычно наблюдается дымка, при ухудшении видимости до 1 км и менее - туман. В сухую погоду видимость может ухудшаться дымом, пылью или мглою.
Явления - указаны атмосферные явления, наблюдавшиеся в срок или в последний час перед сроком; фигурными скобками обозначены явления, наблюдавшиеся между сроками (за 1-3 часа до срока); квадратными скобками обозначены град или гололедные отложения с указанием их диаметра в мм.
Облачность - указаны через наклонную черту общая и нижняя облачность в баллах и высота нижней границы облаков в метрах; квадратными скобками обозначены формы облаков: Ci - перистые, Cs - перисто-слоистые, Cc - перисто-кучевые, Ac - высококучевые, As - высокослоистые, Sc - слоисто-кучевые, Ns - слоисто-дождевые, Cu - кучевые, Cb - кучево-дождевые. Подробнее классификацию облаков см. в Атласе облаков (PDF).
T - Температура воздуха - температура, измеренная на высоте 2 м над землей.
Td - Температура точки росы - температура, при понижении до которой содержащийся в воздухе водяной пар достигнет насыщения.
f - Относительная влажность воздуха - влажноcть воздуха, измеренная на высоте 2 м над землей.
Te - Эффективная температура - температура, которую ощущает одетый по сезону человек в тени. Характеристика душности погоды. При расчете учитывается влияние влажности воздуха и скорости ветра на теплоощущения человека.
Tes - Эффективная температура на солнце - температура, которую ощущает человек, с поправкой на солнечный нагрев. Характеристика знойности погоды. Зависит от высоты солнца над горизонтом, облачности и скорости ветра. Ночью, в пасмурную погоду, а также при ветре 12 м/с и более поправка равна нулю.
P - Атмосферное давление - приведенное к уровню моря атмосферное давление.
Po - Атмосферное давление - измеренное на уровне метеостанции атмосферное давление.
Tmin - Минимальная температура - минимум температуры воздуха на высоте 2 м над землей.
Tmax - Максимальная температура - максимум температуры воздуха на высоте 2 м над землей.
R - Количество осадков - Количество выпавших осадков за период времени, мм. При наведении курсора мыши на число - период времени, за который выпало указанное количество осадков.
R24 - Количество осадков - Количество выпавших осадков за 24 часа, мм.
S - Снежный покров - Высота снежного покрова, см. При наведении курсора мыши на число - состояние снежного покрова и степень покрытия местности в баллах.